DW1549 Fauske NO current weather conditions

sailwx.info

Wind from 236 at 1 knots gusting 5

Air temperature 20.6° C
Dewpoint 16.0° C

Last reported at 2014-Jul-24 16:43 UTC.
Time now 2014-Jul-24 17:51 UTC

Location: N 67°16' E 015°25'.
View on Google Maps.

See reports from other nearby stations

  
Tides and Currents Weather Stations Pressure Air Temp Water Temp Dewpoint Dewpoint Depression Visibility Wind Speed Wind Dir Waves Ship Positions
date/time (UTC)wind fromknots sea level pressurealtimeterstation pressurevisibilityair tempwater tempwave heightnotes
2014-Jul-24 16:43 236 1 gusting 5 20.6
2014-Jul-24 16:33 238 0 gusting 5 20.6
2014-Jul-24 16:23 238 0 gusting 4 20.6
2014-Jul-24 16:13 238 2 gusting 8 20.6
2014-Jul-24 16:03 231 3 gusting 7 21.1
2014-Jul-24 15:53 231 1 gusting 6 21.1
2014-Jul-24 15:43 240 4 gusting 7 21.1
2014-Jul-24 15:33 229 0 gusting 6 21.1
2014-Jul-24 15:23 234 3 gusting 6 20.6
2014-Jul-24 15:13 227 3 gusting 6 20.6
2014-Jul-24 15:03 239 1 gusting 7 20.6
2014-Jul-24 14:53 236 0 gusting 5 20.0
2014-Jul-24 14:43 233 1 gusting 7 20.0
2014-Jul-24 14:33 229 20.0
2014-Jul-24 14:23 227 2 gusting 5 20.0
2014-Jul-24 14:13 229 1 gusting 5 19.4
2014-Jul-24 14:03 227 2 gusting 5 19.4
2014-Jul-24 13:53 225 0 gusting 4 19.4
2014-Jul-24 13:43 224 19.4
2014-Jul-24 13:33 223 0 gusting 2 19.4
2014-Jul-24 13:23 223 1 gusting 4 18.9
2014-Jul-24 13:13 223 0 gusting 4 18.9
2014-Jul-24 13:03 223 18.9
2014-Jul-24 12:53 223 0 gusting 6 18.9
2014-Jul-24 12:43 209 0 gusting 4 18.9
2014-Jul-24 12:33 205 2 gusting 5 18.9
2014-Jul-24 12:23 224 1 gusting 6 18.9
2014-Jul-24 12:13 223 18.3
2014-Jul-24 12:03 221 2 gusting 5 18.3
2014-Jul-24 11:53 212 0 gusting 5 18.3
2014-Jul-24 11:43 212 2 gusting 4 18.3
2014-Jul-24 11:33 200 2 gusting 7 18.3
2014-Jul-24 11:23 224 1 gusting 5 18.9
2014-Jul-24 11:13 216 1 gusting 5 18.9
2014-Jul-24 11:03 217 18.9
2014-Jul-24 10:53 219 18.9
2014-Jul-24 10:43 219 18.9
2014-Jul-24 10:33 219 18.9
2014-Jul-24 10:23 219 18.9
2014-Jul-24 10:13 219 18.9
2014-Jul-24 10:03 219 18.9
2014-Jul-24 09:53 219 18.9
2014-Jul-24 09:43 219 1 gusting 2 18.3
2014-Jul-24 09:33 219 18.3
2014-Jul-24 09:23 219 18.3
2014-Jul-24 09:13 219 1 gusting 4 17.8
2014-Jul-24 09:03 219 2 gusting 5 17.8
2014-Jul-24 08:53 221 17.8
2014-Jul-24 08:43 222 1 gusting 4 17.8
2014-Jul-24 08:33 223 17.8
2014-Jul-24 08:23 223 17.8
2014-Jul-24 08:13 223 17.8
2014-Jul-24 08:03 229 1 gusting 5 17.8
2014-Jul-24 07:53 234 0 gusting 4 17.8
2014-Jul-24 07:43 240 17.2
2014-Jul-24 07:33 240 17.2
2014-Jul-24 07:23 240 0 gusting 4 17.2
2014-Jul-24 07:13 240 17.2
2014-Jul-24 07:03 240 17.2
2014-Jul-24 06:53 240 17.2
2014-Jul-24 06:43 240 17.2
2014-Jul-24 06:33 240 1 gusting 4 17.2
2014-Jul-24 06:23 240 0 gusting 5 16.7
2014-Jul-24 06:13 240 16.7
2014-Jul-24 06:03 240 1 gusting 4 16.7
2014-Jul-24 05:53 240 0 gusting 5 16.7
2014-Jul-24 04:43 235 1 gusting 2 16.7
2014-Jul-24 04:33 236 0 gusting 4 16.7
2014-Jul-24 04:23 236 0 gusting 4 16.7
2014-Jul-24 04:13 238 16.7
2014-Jul-24 04:03 238 0 gusting 4 16.7
2014-Jul-24 03:53 238 16.7
2014-Jul-24 03:43 238 16.7
2014-Jul-24 03:33 238 16.7
2014-Jul-24 03:23 238 16.7
2014-Jul-24 03:13 238 16.7
2014-Jul-24 03:03 239 16.7
2014-Jul-24 02:53 239 16.7
2014-Jul-24 02:43 239 16.7
2014-Jul-24 02:33 239 16.7
2014-Jul-24 02:23 239 16.1
2014-Jul-24 02:13 239 16.1
2014-Jul-24 02:03 239 16.1
2014-Jul-24 01:53 239 16.1
2014-Jul-24 01:43 239 16.1
2014-Jul-24 01:33 239 16.1
2014-Jul-24 01:23 239 16.1
2014-Jul-24 01:13 239 16.1
2014-Jul-24 01:03 239 16.1
2014-Jul-24 00:53 239 15.6
2014-Jul-24 00:43 239 15.6
2014-Jul-24 00:33 239 15.6
2014-Jul-24 00:23 239 15.6
2014-Jul-24 00:13 239 15.6
2014-Jul-24 00:03 239 15.6
2014-Jul-23 23:53 239 15.6
2014-Jul-23 23:43 239 15.6
2014-Jul-23 23:33 239 15.6
2014-Jul-23 23:23 239 1 gusting 2 15.6
2014-Jul-23 23:13 239 16.1
2014-Jul-23 23:03 239 16.1
2014-Jul-23 22:53 239 16.7
2014-Jul-23 22:43 239 16.7
2014-Jul-23 22:33 239 16.7
2014-Jul-23 22:23 239 16.1
2014-Jul-23 22:13 239 16.7
2014-Jul-23 22:03 239 16.7
2014-Jul-23 21:53 239 16.7
2014-Jul-23 21:43 239 17.2
2014-Jul-23 21:33 239 17.2
2014-Jul-23 21:23 239 17.2
2014-Jul-23 21:13 239 17.8
2014-Jul-23 21:03 239 18.3
2014-Jul-23 20:53 239 18.3
2014-Jul-23 20:43 239 18.9
2014-Jul-23 20:33 239 18.9
2014-Jul-23 20:13 240 19.4
2014-Jul-23 20:03 240 19.4
2014-Jul-23 19:53 241 19.4
2014-Jul-23 19:43 241 19.4
2014-Jul-23 19:23 241 20.0
2014-Jul-23 19:13 241 20.0
2014-Jul-23 19:03 241 0 gusting 2 20.6
2014-Jul-23 18:53 241 20.6
2014-Jul-23 18:33 241 21.1
2014-Jul-23 18:13 241 21.7
2014-Jul-23 18:03 241 22.2
2014-Jul-23 17:53 241 22.8
2014-Jul-23 17:43 241 22.8
2014-Jul-23 17:33 241 23.3
2014-Jul-23 17:23 241 23.3
2014-Jul-23 17:03 236 0 gusting 5 23.3
2014-Jul-23 16:53 236 2 gusting 7 23.9
2014-Jul-23 16:43 234 0 gusting 5 24.4
2014-Jul-23 16:33 243 3 gusting 6 24.4
2014-Jul-23 16:13 238 1 gusting 6 25.0
2014-Jul-23 16:03 218 1 gusting 6 25.0
2014-Jul-23 15:53 205 0 gusting 6 25.0
2014-Jul-23 15:43 192 25.6
2014-Jul-23 15:33 192 0 gusting 4 26.1
2014-Jul-23 15:23 190 26.1
2014-Jul-23 15:13 190 26.1
2014-Jul-23 15:03 190 26.1
2014-Jul-23 14:53 190 25.6
2014-Jul-23 14:43 190 25.6
2014-Jul-23 14:33 190 25.6
2014-Jul-23 14:23 190 1 gusting 5 25.6
2014-Jul-23 14:13 228 1 gusting 5 25.6
2014-Jul-23 14:03 218 1 gusting 5 26.1
2014-Jul-23 13:53 223 2 gusting 6 26.1
2014-Jul-23 13:43 225 0 gusting 2 25.6
2014-Jul-23 13:33 225 2 gusting 4 25.0
2014-Jul-23 13:13 210 24.4
2014-Jul-23 13:03 210 1 gusting 4 24.4
2014-Jul-23 12:53 204 0 gusting 4 25.0
2014-Jul-23 12:43 203 1 gusting 4 25.6
2014-Jul-23 12:33 200 25.0
2014-Jul-23 12:23 200 25.6
2014-Jul-23 12:13 200 25.6
2014-Jul-23 12:03 200 25.6
2014-Jul-23 11:43 200 24.4
2014-Jul-23 11:23 200 25.0
2014-Jul-23 11:13 200 24.4
2014-Jul-23 11:03 200 23.9
2014-Jul-23 10:53 200 23.9
2014-Jul-23 10:43 200 23.3
2014-Jul-23 10:13 200 22.8
2014-Jul-23 10:03 200 22.2
2014-Jul-23 09:53 200 0 gusting 5 22.2
2014-Jul-23 09:43 202 2 gusting 4 22.8
2014-Jul-23 09:33 205 22.2
2014-Jul-23 09:23 205 22.2
2014-Jul-23 09:13 205 22.2
2014-Jul-23 09:03 205 22.2
2014-Jul-23 08:53 205 21.7
2014-Jul-23 08:43 205 21.7
2014-Jul-23 08:33 205 2 gusting 4 22.2
2014-Jul-23 08:23 205 0 gusting 2 21.7
2014-Jul-23 08:13 205 21.7
2014-Jul-23 08:03 205 0 gusting 4 21.1
2014-Jul-23 07:53 205 21.1
2014-Jul-23 07:43 205 21.1
2014-Jul-23 07:33 205 20.6
2014-Jul-23 07:23 205 20.6
2014-Jul-23 07:13 205 20.0
2014-Jul-23 07:03 205 20.0
2014-Jul-23 06:53 206 1 gusting 2 20.0
2014-Jul-23 06:23 253 18.9
2014-Jul-23 06:13 253 18.3
2014-Jul-23 06:03 253 17.8
2014-Jul-23 05:53 253 17.8
2014-Jul-23 05:43 253 17.2
2014-Jul-23 05:33 253 16.7
2014-Jul-23 05:13 253 16.1
2014-Jul-23 05:03 253 15.6
2014-Jul-23 04:53 253 15.6
2014-Jul-23 04:43 253 15.0
2014-Jul-23 04:33 253 15.0
2014-Jul-23 04:23 253 14.4
2014-Jul-23 04:03 253 14.4
2014-Jul-23 03:53 253 14.4
2014-Jul-23 03:43 253 14.4
2014-Jul-23 03:23 279 13.9
2014-Jul-23 03:13 294 0 gusting 2 13.9
2014-Jul-23 03:03 321 13.9
2014-Jul-23 02:53 321 13.3
2014-Jul-23 02:43 321 13.3
2014-Jul-23 02:23 321 13.9
2014-Jul-23 02:13 321 13.9
2014-Jul-23 01:53 321 13.9
2014-Jul-23 01:43 321 13.9
2014-Jul-23 01:33 321 13.9
2014-Jul-23 01:23 321 13.9
2014-Jul-23 01:13 321 14.4
2014-Jul-23 01:03 321 14.4
2014-Jul-23 00:53 320 14.4
2014-Jul-23 00:43 320 14.4
2014-Jul-23 00:33 320 14.4
2014-Jul-23 00:23 320 14.4
2014-Jul-23 00:13 320 14.4
2014-Jul-23 00:03 320 14.4
2014-Jul-22 23:43 320 14.4
2014-Jul-22 23:33 317 15.0
2014-Jul-22 23:23 317 15.0
2014-Jul-22 23:13 317 15.0
2014-Jul-22 23:03 317 15.0
2014-Jul-22 22:53 317 15.6
2014-Jul-22 22:43 317 15.6
2014-Jul-22 22:33 317 15.6
2014-Jul-22 22:23 317 16.1
2014-Jul-22 22:13 317 16.1
2014-Jul-22 22:03 317 16.7
2014-Jul-22 21:53 317 16.7
2014-Jul-22 21:43 317 16.7
2014-Jul-22 21:33 317 17.2
2014-Jul-22 21:13 316 17.2
2014-Jul-22 21:03 316 17.8
2014-Jul-22 20:53 308 17.8
2014-Jul-22 20:33 231 18.3
2014-Jul-22 20:13 231 18.9
2014-Jul-22 19:53 231 19.4
2014-Jul-22 19:43 231 19.4
2014-Jul-22 19:23 231 20.0
2014-Jul-22 19:13 231 20.6
2014-Jul-22 19:03 231 21.1
2014-Jul-22 18:53 232 21.7
2014-Jul-22 18:43 232 21.7
2014-Jul-22 18:33 231 0 gusting 6 22.2
2014-Jul-22 18:23 234 1 gusting 5 22.2
2014-Jul-22 18:13 222 1 gusting 4 22.2
2014-Jul-22 18:03 203 0 gusting 4 21.7
2014-Jul-22 17:53 202 22.2
2014-Jul-22 17:43 202 22.8
2014-Jul-22 17:33 202 22.8
2014-Jul-22 17:23 202 23.3
2014-Jul-22 17:03 225 23.9